Date String (YYYY-MM-DD hh:mm:ss) UTC,Instrument flags,Ambient pressure (hPa),Sample flow (lpm),Bypass flow (lpm),Sample temperature (°C),Ambient temperature (°C),ASC tube jacket temperature (°C),LED temperature (°C),Box temperature (°C),Sample RH (%),Span deviation,Mass concentration (μg/m³),Mass concentration (μg/m³),Mass concentration (μg/m³)
DateTimeUTC,F1_M11,P_M11,Q1_M11,Q2_M11,T1_M11,T2_M11,T3_M11,T4_M11,T5_M11,U1_M11,ZSPAN_M11,X0_M11,X2_M11,X1_M11
2022-04-05 16:00:00,,0811.4,5.00,0.00,25.7,25.0,00.0,34.7,27.6,19.8,0000.0,0006.70,0000.82,0000.16
2022-04-05 16:01:00,,0811.5,5.01,0.00,25.7,25.0,00.0,34.7,27.6,19.9,0000.0,0006.71,0000.79,0000.15
2022-04-05 16:02:00,,0811.7,5.00,0.00,25.7,25.0,00.0,34.7,27.6,20.3,0000.0,0006.66,0000.82,0000.14
2022-04-05 16:03:00,,0811.8,5.00,0.00,25.7,25.0,00.0,34.7,27.6,20.2,0000.0,0006.83,0000.79,0000.14
2022-04-05 16:04:00,,0812.0,5.00,0.00,25.7,25.0,00.0,34.7,27.6,19.9,0000.0,0006.45,0000.79,0000.14
2022-04-05 16:05:00,,0812.2,4.99,0.00,25.7,25.1,00.0,34.7,27.6,20.1,0000.0,0005.10,0000.83,0000.14
2022-04-05 16:06:00,,0812.4,5.00,0.00,25.8,25.1,00.0,34.7,27.6,20.1,0000.0,0005.03,0000.87,0000.14
2022-04-05 16:07:00,,0812.6,5.00,0.00,25.8,25.1,00.0,34.7,27.7,19.8,0000.0,0005.07,0000.90,0000.15
2022-04-05 16:08:00,,0812.8,5.00,0.00,25.8,25.1,00.0,34.7,27.7,19.6,0000.0,0004.99,0000.90,0000.15
2022-04-05 16:09:00,,0812.8,5.00,0.00,25.8,25.2,00.0,34.8,27.7,19.5,0000.0,0003.72,0000.84,0000.16
2022-04-05 16:10:00,,0812.7,5.00,0.00,25.8,25.2,00.0,34.8,27.7,19.5,0000.0,0003.62,0000.86,0000.18
2022-04-05 16:11:00,,0812.8,5.01,0.00,25.8,25.2,00.0,34.8,27.7,19.5,0000.0,0003.45,0000.87,0000.18
2022-04-05 16:12:00,,0812.8,5.01,0.00,25.8,25.1,00.0,34.8,27.7,19.4,0000.0,0003.46,0000.89,0000.19
2022-04-05 16:13:00,,0812.8,5.00,0.00,25.8,25.1,00.0,34.8,27.6,19.4,0000.0,0003.74,0000.87,0000.21
2022-04-05 16:14:00,,0812.9,5.00,0.00,25.8,25.1,00.0,34.8,27.6,19.5,0000.0,0003.08,0000.95,0000.23
2022-04-05 16:15:00,,0813.0,4.99,0.00,25.8,25.1,00.0,34.8,27.6,19.4,0000.0,0003.03,0000.97,0000.25
2022-04-05 16:16:00,,0812.7,4.99,0.00,25.8,25.0,00.0,34.8,27.6,19.4,0000.0,0004.55,0000.96,0000.26
2022-04-05 16:17:00,,0812.6,5.00,0.00,25.8,25.0,00.0,34.8,27.6,19.4,0000.0,0005.99,0000.97,0000.28
2022-04-05 16:18:00,,0812.7,5.01,0.00,25.8,25.0,00.0,34.8,27.6,19.4,0000.0,0006.95,0000.96,0000.28
2022-04-05 16:19:00,,0812.6,5.00,0.00,25.7,24.9,00.0,34.8,27.5,19.5,0000.0,0007.05,0001.01,0000.29
2022-04-05 16:20:00,,0812.6,5.00,0.00,25.7,24.9,00.0,34.7,27.5,19.5,0000.0,0007.17,0001.05,0000.30
2022-04-05 16:21:00,,0812.4,5.02,0.00,25.7,24.9,00.0,34.7,27.5,19.4,0000.0,0007.41,0001.02,0000.31
2022-04-05 16:22:00,,0812.3,4.99,0.00,25.7,24.9,00.0,34.7,27.5,18.9,0000.0,0007.65,0001.05,0000.31
2022-04-05 16:23:00,,0812.3,5.00,0.00,25.7,24.9,00.0,34.7,27.6,18.1,0000.0,0007.68,0001.11,0000.31
2022-04-05 16:24:00,,0812.2,4.99,0.00,25.7,25.0,00.0,34.7,27.6,17.7,0000.0,0007.55,0001.15,0000.30
2022-04-05 16:25:00,,0812.1,5.00,0.00,25.7,25.0,00.0,34.7,27.6,18.6,0000.0,0007.35,0001.11,0000.29
2022-04-05 16:26:00,,0812.0,5.00,0.00,25.7,25.0,00.0,34.7,27.6,18.4,0000.0,0007.36,0001.10,0000.28
2022-04-05 16:27:00,,0812.0,5.00,0.00,25.8,25.1,00.0,34.7,27.6,18.6,0000.0,0005.78,0001.11,0000.28
2022-04-05 16:28:00,,0812.1,5.01,0.00,25.8,25.1,00.0,34.7,27.6,19.3,0000.0,0004.38,0001.08,0000.27
2022-04-05 16:29:00,,0812.2,5.00,0.00,25.8,25.1,00.0,34.7,27.6,19.5,0000.0,0004.44,0001.09,0000.27
2022-04-05 16:30:00,,0812.3,5.02,0.00,25.8,25.1,00.0,34.8,27.6,19.6,0000.0,0004.40,0001.06,0000.28
2022-04-05 16:31:00,,0812.3,5.00,0.00,25.8,25.1,00.0,34.8,27.6,19.8,0000.0,0004.72,0001.12,0000.28
2022-04-05 16:32:00,,0812.4,5.00,0.00,25.8,25.1,00.0,34.8,27.6,19.9,0000.0,0004.76,0001.16,0000.29
2022-04-05 16:33:00,,0812.4,5.00,0.00,25.8,25.1,00.0,34.8,27.6,19.6,0000.0,0004.92,0001.12,0000.29
2022-04-05 16:34:00,,0812.5,5.00,0.00,25.8,25.1,00.0,34.8,27.6,19.5,0000.0,0005.52,0001.06,0000.29
2022-04-05 16:35:00,,0812.5,5.00,0.00,25.8,25.1,00.0,34.7,27.5,19.2,0000.0,0005.48,0001.00,0000.30
2022-04-05 16:36:00,,0812.4,5.01,0.00,25.7,25.1,00.0,34.7,27.6,19.3,0000.0,0005.58,0001.01,0000.31
2022-04-05 16:37:00,,0812.4,5.01,0.00,25.8,25.1,00.0,34.7,27.6,19.5,0000.0,0006.95,0001.05,0000.31
2022-04-05 16:38:00,,0812.4,5.00,0.00,25.8,25.0,00.0,34.7,27.6,19.3,0000.0,0007.50,0001.10,0000.31
2022-04-05 16:39:00,,0812.4,5.00,0.00,25.8,25.0,00.0,34.7,27.6,19.2,0000.0,0007.77,0001.17,0000.31
2022-04-05 16:40:00,,0812.4,4.99,0.00,25.8,25.0,00.0,34.8,27.6,19.2,0000.0,0007.33,0001.22,0000.32
2022-04-05 16:41:00,,0812.4,5.01,0.00,25.8,25.0,00.0,34.8,27.6,19.0,0000.0,0007.37,0001.26,0000.32
2022-04-05 16:42:00,,0812.3,5.00,0.00,25.8,25.1,00.0,34.8,27.6,19.0,0000.0,0007.51,0001.19,0000.31
2022-04-05 16:43:00,,0812.2,5.00,0.00,25.8,25.1,00.0,34.8,27.7,18.9,0000.0,0007.32,0001.21,0000.31
2022-04-05 16:44:00,,0812.4,5.01,0.00,25.8,25.1,00.0,34.8,27.6,18.8,0000.0,0007.12,0001.23,0000.32
2022-04-05 16:45:00,,0812.4,5.00,0.00,25.8,25.1,00.0,34.8,27.6,19.3,0000.0,0007.42,0001.21,0000.32
2022-04-05 16:46:00,,0812.3,4.99,0.00,25.8,25.2,00.0,34.8,27.6,19.1,0000.0,0007.87,0001.29,0000.33
2022-04-05 16:47:00,,0812.2,4.99,0.00,25.8,25.2,00.0,34.8,27.6,18.9,0000.0,0008.24,0001.36,0000.32
2022-04-05 16:48:00,,0812.0,5.00,0.00,25.8,25.2,00.0,34.8,27.6,18.9,0000.0,0007.71,0001.38,0000.32
2022-04-05 16:49:00,,0812.1,5.00,0.00,25.8,25.2,00.0,34.8,27.6,18.9,0000.0,0007.14,0001.30,0000.32
2022-04-05 16:50:00,,0812.2,5.01,0.00,25.7,25.1,00.0,34.8,27.5,18.7,0000.0,0006.60,0001.24,0000.33
2022-04-05 16:51:00,,0812.3,4.99,0.00,25.8,25.1,00.0,34.8,27.6,18.6,0000.0,0007.90,0001.22,0000.32
2022-04-05 16:52:00,,0812.3,4.99,0.00,25.8,25.1,00.0,34.8,27.6,18.9,0000.0,0008.32,0001.18,0000.32
2022-04-05 16:53:00,,0812.4,4.99,0.00,25.8,25.1,00.0,34.8,27.5,18.7,0000.0,0008.12,0001.21,0000.32
2022-04-05 16:54:00,,0812.5,4.99,0.00,25.8,25.1,00.0,34.8,27.6,18.7,0000.0,0007.98,0001.19,0000.32
2022-04-05 16:55:00,,0812.5,5.00,0.00,25.8,25.1,00.0,34.8,27.6,18.7,0000.0,0008.20,0001.23,0000.32
2022-04-05 16:56:00,,0812.5,5.01,0.00,25.8,25.1,00.0,34.8,27.6,19.1,0000.0,0008.03,0001.29,0000.33
2022-04-05 16:57:00,,0812.6,5.01,0.00,25.8,25.1,00.0,34.8,27.6,19.0,0000.0,0007.55,0001.25,0000.33
2022-04-05 16:58:00,,0812.5,5.00,0.00,25.8,25.1,00.0,34.8,27.6,18.6,0000.0,0006.57,0001.12,0000.32
2022-04-05 16:59:00,,0812.5,4.99,0.00,25.8,25.1,00.0,34.8,27.6,18.6,0000.0,0006.48,0001.12,0000.33
